Flag for U.S.A. Weather past 2 weeks in Aurora, Illinois, U.S.A.

Now
62 °F

Fog.


Feels Like: 62 °F
Forecast: 62 / 79 °F
Wind: No wind

Location: Dupage Airport

Current Time: Aug 1, 2014 at 7:13:54 AM

Latest Report: Aug 1, 2014 at 5:52 AM


Visibility: 5 mi

Pressure: 30.06 "Hg

Humidity: 93%

Dew point: 60 °F

Location of AuroraLocation

Historic Weather in Aurora — Graph

°F

Aurora temperature yesterday

Maximum temperature yesterday: 82 °F (at 1:52 PM)
Minimum temperature yesterday: 59 °F (at 2:52 AM)
Average temperature yesterday: 71 °F

Past Weeks' High & Low Weather Summary

 TemperatureHumidityPressure
High86 °F (Jul 22, 6:52 PM)97% (Jul 27, 3:59 AM)30.18 "Hg (Jul 27, 3:59 AM)
Low52 °F (Jul 24, 5:52 AM)35% (Jul 24, 5:52 PM)29.71 "Hg (Jul 27, 1:52 PM)
Average70 °F68%30.02 "Hg
* Reported Jul 17 5:52 AM — Aug 1 5:52 AM, Aurora, Weather by CustomWeather, © 2014

Note: Actual official high and low records may vary slightly from our data, if they occured in-between our weather recording intervals... More about our weather records

Advertising

Aurora weather history for previous 24 hours

 ConditionsComfort  
Time TempWeatherWind HumidityBarometerVisibility
5:52 AM
Aug 1
62 °FFog.No wind93%30.06 "Hg5 mi
4:52 AM60 °FClear.No wind93%30.04 "Hg7 mi
3:52 AM61 °FFog.3 mph93%30.04 "Hg4 mi
2:52 AM61 °FFog.3 mph93%30.04 "Hg6 mi
1:52 AM63 °FClear.No wind87%30.03 "Hg9 mi
12:52 AM63 °FClear.3 mph87%30.03 "Hg8 mi
11:52 PM
Jul 31
65 °FClear.3 mph85%30.03 "Hg10 mi
10:52 PM65 °FClear.3 mph81%30.03 "Hg10 mi
9:52 PM68 °FClear.No wind76%30.03 "Hg10 mi
8:52 PM71 °FSunny.5 mph68%30.02 "Hg10 mi
7:52 PM75 °FSunny.6 mph60%30.01 "Hg10 mi
6:52 PM79 °FSunny.9 mph48%30.01 "Hg10 mi
5:52 PM80 °FSunny.13 mph49%30.01 "Hg10 mi
4:52 PM81 °FPassing clouds.13 mph44%30.01 "Hg10 mi
3:52 PM82 °FPartly sunny.13 mph44%30.01 "Hg10 mi
2:52 PM82 °FSunny.14 mph46%30.02 "Hg10 mi
1:52 PM82 °FPassing clouds.13 mph43%30.02 "Hg10 mi
12:52 PM81 °FScattered clouds.13 mph47%30.03 "Hg10 mi
11:52 AM80 °FSunny.12 mph51%30.03 "Hg10 mi
10:52 AM78 °FSunny.7 mph58%30.03 "Hg10 mi
9:52 AM74 °FSunny.9 mph62%30.03 "Hg10 mi
8:52 AM70 °FSunny.12 mph66%30.03 "Hg10 mi
7:52 AM66 °FSunny.6 mph73%30.03 "Hg10 mi
Weather by CustomWeather, © 2014

See weather overviewHow to use our weather pages